Date String (YYYY-MM-DD hh:mm:ss) UTC,Instrument flags,absolute air pressure of the measurement (hPa),sample flow rate (lpm),inlet stack bypass flow (lpm),air temperature of the measurement (°C),ambient temperature measured by the external sensor (°C),aerosol sample conditioner tube jacket temperature (°C),OPC LED temperature (°C),internal box temperature (°C),relative humidity of the measurement (%),span deviation,mass concentration of particles derived from Lorenz-Mie calculation of OPC scattering (μg/m³),mass concentration of particles derived from Lorenz-Mie calculation of OPC scattering (μg/m³),mass concentration of particles derived from Lorenz-Mie calculation of OPC scattering (μg/m³)
DateTimeUTC,F1_M11,P_M11,Q1_M11,Q2_M11,T1_M11,T2_M11,T3_M11,T4_M11,T5_M11,U1_M11,ZSPAN_M11,X2_M11,X0_M11,X1_M11
2023-08-13 16:00:00,SystemResetWarning,0838.0,5.00,000.00,029.3,027.4,000.0,037.8,031.0,26.1,0000.0,0005.69,0024.27,0003.30
2023-08-13 16:01:00,SystemResetWarning,0838.0,5.00,000.00,029.3,027.7,000.0,037.8,031.0,26.4,0000.0,0005.72,0023.90,0003.31
2023-08-13 16:02:00,SystemResetWarning,0838.0,4.99,000.00,029.4,027.9,000.0,037.9,031.1,26.5,0000.0,0005.64,0023.47,0003.30
2023-08-13 16:03:00,SystemResetWarning,0838.0,4.99,000.00,029.4,028.0,000.0,037.9,031.1,26.4,0000.0,0005.57,0022.67,0003.31
2023-08-13 16:04:00,SystemResetWarning,0838.0,5.00,000.00,029.5,028.2,000.0,037.9,031.2,26.2,0000.0,0005.58,0022.43,0003.31
2023-08-13 16:05:00,SystemResetWarning,0837.9,5.00,000.00,029.5,028.3,000.0,037.9,031.2,26.5,0000.0,0005.59,0022.44,0003.31
2023-08-13 16:06:00,SystemResetWarning,0837.9,5.00,000.00,029.5,027.4,000.0,037.8,031.1,26.2,0000.0,0005.59,0023.00,0003.31
2023-08-13 16:07:00,SystemResetWarning,0838.0,5.00,000.00,029.4,025.6,000.0,037.7,030.7,26.8,0000.0,0005.55,0022.42,0003.30
2023-08-13 16:08:00,SystemResetWarning,0838.0,5.01,000.00,029.3,024.9,000.0,037.6,030.5,26.9,0000.0,0005.53,0023.28,0003.31
2023-08-13 16:09:00,SystemResetWarning,0837.9,5.01,000.00,029.2,025.1,000.0,037.6,030.4,26.8,0000.0,0005.50,0024.20,0003.31
2023-08-13 16:10:00,SystemResetWarning,0838.0,5.00,000.00,029.1,025.4,000.0,037.6,030.4,26.5,0000.0,0005.47,0023.25,0003.31
2023-08-13 16:11:00,SystemResetWarning,0838.0,5.00,000.00,029.1,025.9,000.0,037.7,030.5,26.7,0000.0,0005.49,0021.85,0003.31
2023-08-13 16:12:00,SystemResetWarning,0838.0,5.00,000.00,029.1,026.3,000.0,037.7,030.6,27.0,0000.0,0005.49,0022.58,0003.29
2023-08-13 16:13:00,SystemResetWarning,0838.0,4.99,000.00,029.1,026.7,000.0,037.7,030.7,27.2,0000.0,0005.48,0022.41,0003.29
2023-08-13 16:14:00,SystemResetWarning,0838.0,5.00,000.00,029.1,027.0,000.0,037.7,030.8,26.8,0000.0,0005.52,0022.03,0003.30
2023-08-13 16:15:00,SystemResetWarning,0838.0,5.00,000.00,029.2,027.3,000.0,037.7,030.9,26.8,0000.0,0005.54,0023.00,0003.31
2023-08-13 16:16:00,SystemResetWarning,0838.1,5.01,000.00,029.2,027.5,000.0,037.7,030.9,26.6,0000.0,0005.51,0022.89,0003.31
2023-08-13 16:17:00,SystemResetWarning,0838.1,5.00,000.00,029.2,027.7,000.0,037.7,031.0,26.4,0000.0,0005.46,0022.36,0003.31
2023-08-13 16:18:00,SystemResetWarning,0838.1,4.99,000.00,029.3,027.9,000.0,037.7,031.0,26.2,0000.0,0005.45,0022.90,0003.31
2023-08-13 16:19:00,SystemResetWarning,0838.1,5.00,000.00,029.3,028.1,000.0,037.8,031.1,26.1,0000.0,0005.45,0022.77,0003.31
2023-08-13 16:20:00,SystemResetWarning,0838.2,5.00,000.00,029.4,028.2,000.0,037.8,031.1,26.3,0000.0,0005.44,0022.19,0003.31
2023-08-13 16:21:00,SystemResetWarning,0838.2,5.00,000.00,029.4,028.3,000.0,037.8,031.2,26.6,0000.0,0005.44,0022.10,0003.32
2023-08-13 16:22:00,SystemResetWarning,0838.2,4.99,000.00,029.4,027.5,000.0,037.7,031.0,26.5,0000.0,0005.41,0021.91,0003.32
2023-08-13 16:23:00,SystemResetWarning,0838.1,5.01,000.00,029.4,025.6,000.0,037.6,030.7,26.6,0000.0,0005.42,0022.29,0003.32
2023-08-13 16:24:00,SystemResetWarning,0838.0,5.00,000.00,029.3,025.0,000.0,037.5,030.4,26.3,0000.0,0005.46,0023.03,0003.32
2023-08-13 16:25:00,SystemResetWarning,0838.1,5.01,000.00,029.2,025.2,000.0,037.5,030.4,26.2,0000.0,0005.46,0025.16,0003.32
2023-08-13 16:26:00,SystemResetWarning,0838.1,5.01,000.00,029.1,025.6,000.0,037.6,030.4,26.4,0000.0,0005.48,0024.75,0003.31
2023-08-13 16:27:00,SystemResetWarning,0838.1,4.99,000.00,029.1,026.0,000.0,037.6,030.5,26.3,0000.0,0005.41,0024.59,0003.31
2023-08-13 16:28:00,SystemResetWarning,0838.1,5.00,000.00,029.1,026.5,000.0,037.6,030.6,26.1,0000.0,0005.39,0025.02,0003.31
2023-08-13 16:29:00,SystemResetWarning,0838.2,5.01,000.00,029.1,026.8,000.0,037.6,030.7,26.2,0000.0,0005.36,0025.01,0003.30
2023-08-13 16:30:00,SystemResetWarning,0838.2,4.99,000.00,029.1,027.1,000.0,037.6,030.8,26.1,0000.0,0005.34,0024.68,0003.30
2023-08-13 16:31:00,SystemResetWarning,0838.2,5.00,000.00,029.1,027.4,000.0,037.7,030.9,26.7,0000.0,0005.29,0024.26,0003.29
2023-08-13 16:32:00,SystemResetWarning,0838.1,5.00,000.00,029.2,027.6,000.0,037.7,030.9,26.9,0000.0,0005.26,0024.96,0003.28
2023-08-13 16:33:00,SystemResetWarning,0838.2,5.00,000.00,029.2,027.8,000.0,037.7,030.9,26.4,0000.0,0005.22,0024.93,0003.27
2023-08-13 16:34:00,SystemResetWarning,0838.2,5.00,000.00,029.3,027.9,000.0,037.7,031.0,26.5,0000.0,0005.24,0025.76,0003.26
2023-08-13 16:35:00,SystemResetWarning,0838.2,5.01,000.00,029.3,028.1,000.0,037.7,031.1,26.5,0000.0,0005.19,0024.40,0003.26
2023-08-13 16:36:00,SystemResetWarning,0838.2,5.00,000.00,029.3,028.2,000.0,037.8,031.1,26.3,0000.0,0005.19,0022.77,0003.26
2023-08-13 16:37:00,SystemResetWarning,0838.1,4.99,000.00,029.4,028.3,000.0,037.8,031.2,26.0,0000.0,0005.17,0021.59,0003.26
2023-08-13 16:38:00,SystemResetWarning,0838.2,4.99,000.00,029.4,027.5,000.0,037.7,031.0,25.9,0000.0,0005.18,0021.54,0003.26
2023-08-13 16:39:00,SystemResetWarning,0838.2,5.01,000.00,029.4,025.7,000.0,037.6,030.7,26.3,0000.0,0005.18,0021.74,0003.27
2023-08-13 16:40:00,SystemResetWarning,0838.2,5.00,000.00,029.3,025.0,000.0,037.5,030.4,26.3,0000.0,0005.18,0022.08,0003.27
2023-08-13 16:41:00,SystemResetWarning,0838.2,5.01,000.00,029.2,025.3,000.0,037.5,030.4,26.5,0000.0,0005.18,0022.58,0003.27
2023-08-13 16:42:00,SystemResetWarning,0838.2,5.00,000.00,029.1,025.6,000.0,037.5,030.4,26.7,0000.0,0005.19,0021.85,0003.27
2023-08-13 16:43:00,SystemResetWarning,0838.2,5.00,000.00,029.1,026.1,000.0,037.6,030.5,26.5,0000.0,0005.22,0021.09,0003.27
2023-08-13 16:44:00,SystemResetWarning,0838.2,5.00,000.00,029.1,026.5,000.0,037.6,030.6,26.2,0000.0,0005.26,0020.08,0003.26
2023-08-13 16:45:00,SystemResetWarning,0838.2,5.00,000.00,029.1,026.8,000.0,037.6,030.7,26.2,0000.0,0005.21,0019.09,0003.26
2023-08-13 16:46:00,SystemResetWarning,0838.2,5.00,000.00,029.1,027.2,000.0,037.6,030.8,26.2,0000.0,0005.17,0018.76,0003.25
2023-08-13 16:47:00,SystemResetWarning,0838.2,4.98,000.00,029.2,027.4,000.0,037.6,030.9,26.6,0000.0,0005.12,0018.74,0003.23
2023-08-13 16:48:00,SystemResetWarning,0838.2,4.99,000.00,029.2,027.6,000.0,037.7,030.9,26.1,0000.0,0004.98,0018.26,0003.21
2023-08-13 16:49:00,SystemResetWarning,0838.2,5.01,000.00,029.2,027.8,000.0,037.7,031.0,26.3,0000.0,0004.90,0017.36,0003.19
2023-08-13 16:50:00,SystemResetWarning,0838.2,5.01,000.00,029.3,028.0,000.0,037.7,031.0,26.1,0000.0,0004.82,0016.97,0003.17
2023-08-13 16:51:00,SystemResetWarning,0838.3,4.99,000.00,029.3,028.1,000.0,037.7,031.1,26.0,0000.0,0004.75,0015.81,0003.16
2023-08-13 16:52:00,SystemResetWarning,0838.3,4.99,000.00,029.4,028.2,000.0,037.8,031.1,25.9,0000.0,0004.68,0014.51,0003.16
2023-08-13 16:53:00,SystemResetWarning,0838.3,5.00,000.00,029.4,027.2,000.0,037.7,031.0,25.8,0000.0,0004.68,0014.99,0003.15
2023-08-13 16:54:00,SystemResetWarning,0838.2,5.00,000.00,029.3,025.9,000.0,037.5,030.7,25.8,0000.0,0004.60,0015.05,0003.14
2023-08-13 16:55:00,SystemResetWarning,0838.2,5.00,000.00,029.2,025.8,000.0,037.5,030.5,25.8,0000.0,0004.51,0014.93,0003.14
2023-08-13 16:56:00,SystemResetWarning,0838.2,5.01,000.00,029.2,026.0,000.0,037.6,030.5,25.7,0000.0,0004.46,0015.51,0003.13
2023-08-13 16:57:00,SystemResetWarning,0838.2,5.00,000.00,029.1,026.4,000.0,037.6,030.6,25.9,0000.0,0004.42,0014.97,0003.13
2023-08-13 16:58:00,SystemResetWarning,0838.3,5.00,000.00,029.1,026.7,000.0,037.6,030.7,25.7,0000.0,0004.46,0014.38,0003.13
2023-08-13 16:59:00,SystemResetWarning,0838.3,5.00,000.00,029.2,027.1,000.0,037.6,030.8,25.8,0000.0,0004.50,0014.84,0003.13
